Weather History for Mount Ida, AR

Change the Weather History Date:

Saturday, January 28, 2012

  Actual Average (KHOT) Record (KHOT)
Temperature  
Mean Temperature 38 °F -  
Max Temperature 51 °F 54 °F 78 °F (1975)
Min Temperature 25 °F 31 °F 10 °F (1963)
Degree Days  
Heating Degree Days 26    
Moisture  
Dew Point 22 °F    
Average Humidity 52    
Maximum Humidity 92    
Minimum Humidity 23    
Precipitation  
Precipitation 0.00 in - - ()
Sea Level Pressure  
Sea Level Pressure 30.35 in    
Wind  
Wind Speed 5 mph (NW)    
Max Wind Speed 13 mph    
Max Gust Speed 22 mph    
Visibility 10 miles    
Events      
Averages and records for this station are not official NWS values.
T = Trace of Precipitation, MM = Missing Value Source: NWS Daily Summary

Daily Weather History Graph

Daily Weather History Graph

Search for Another Location

Airport:

Trip Planner

Search our weather history database for the weather conditions in past years. The results will help you decide how hot, cold, wet, or windy it might be!

Date:

Astronomy

Jan. 28, 2012 Rise Set
Actual Time 7:15 AM CST 5:39 PM CST
Civil Twilight 6:48 AM CST 6:06 PM CST
Nautical Twilight 6:18 AM CST 6:36 PM CST
Astronomical Twilight 5:48 AM CST 7:06 PM CST
Moon 9:54 AM CST (1/28) 11:10 PM CST (1/28)
Length of Visible Light 11h 17m
Length of Day
10h 24m
Waxing Crescent, 28% of the Moon is Illuminated
Jan 28
Waxing Crescent
Jan 30
First Quarter
Feb 7
Full
Feb 14
Last Quarter
Feb 21
New

Hourly Weather History & Observations

Time (CST) Temp. Windchill Dew Point Humidity Pressure Visibility Wind Dir Wind Speed Gust Speed Precip Events Conditions
12:53 AM 51.1 °F - 36.0 °F 56% 30.06 in 10.0 mi NW 8.1 mph 21.9 mph N/A   Clear
1:53 AM 48.9 °F - 32.0 °F 52% 30.12 in 10.0 mi NW 6.9 mph - N/A   Clear
2:53 AM 46.0 °F 40.2 °F 30.0 °F 54% 30.18 in 10.0 mi NW 12.7 mph 19.6 mph N/A   Clear
3:53 AM 43.0 °F 37.7 °F 28.9 °F 58% 30.22 in 10.0 mi NW 9.2 mph - N/A   Clear
4:53 AM 41.0 °F 35.2 °F 28.0 °F 60% 30.24 in 10.0 mi NW 9.2 mph - N/A   Clear
5:53 AM 39.0 °F 35.7 °F 28.0 °F 65% 30.28 in 10.0 mi Variable 4.6 mph - N/A   Clear
6:53 AM 37.0 °F 33.3 °F 24.1 °F 59% 30.33 in 10.0 mi Variable 4.6 mph - N/A   Clear
7:53 AM 36.0 °F - 21.9 °F 57% 30.36 in 10.0 mi Calm Calm - N/A   Clear
8:53 AM 37.9 °F - 21.0 °F 51% 30.38 in 10.0 mi Calm Calm - N/A   Clear
9:53 AM 42.1 °F 40.2 °F 18.0 °F 38% 30.40 in 10.0 mi Variable 3.5 mph - N/A   Clear
10:53 AM 45.0 °F 42.6 °F 15.1 °F 30% 30.43 in 10.0 mi Variable 4.6 mph - N/A   Clear
11:53 AM 48.0 °F - 12.9 °F 24% 30.43 in 10.0 mi Calm Calm - N/A   Clear
12:53 PM 48.9 °F - 12.0 °F 23% 30.43 in 10.0 mi Variable 5.8 mph - N/A   Clear
1:53 PM 48.0 °F - 12.0 °F 24% 30.42 in 10.0 mi Variable 5.8 mph - N/A   Clear
2:53 PM 48.9 °F - 14.0 °F 25% 30.41 in 10.0 mi Variable 3.5 mph - N/A   Clear
3:53 PM 48.9 °F - 15.1 °F 26% 30.40 in 10.0 mi Variable 3.5 mph - N/A   Clear
4:53 PM 46.9 °F - 16.0 °F 29% 30.40 in 10.0 mi Calm Calm - N/A   Clear
5:53 PM 42.1 °F - 19.9 °F 41% 30.40 in 10.0 mi Calm Calm - N/A   Clear
6:53 PM 37.0 °F - 19.9 °F 50% 30.42 in 10.0 mi Calm Calm - N/A   Clear
7:53 PM 32.0 °F - 24.1 °F 73% 30.43 in 10.0 mi Calm Calm - N/A   Clear
8:53 PM 30.0 °F - 25.0 °F 82% 30.44 in 10.0 mi Calm Calm - N/A   Clear
9:53 PM 27.0 °F - 24.1 °F 89% 30.43 in 10.0 mi Calm Calm - N/A   Clear
10:53 PM 26.1 °F - 24.1 °F 92% 30.43 in 10.0 mi Calm Calm - N/A   Clear
11:53 PM 25.0 °F - 23.0 °F 92% 30.44 in 10.0 mi Calm Calm - N/A   Clear